| time (UTC) | temp F | wind direction | speed MPH | gust MPH | rain 1hr in | rain 24hr in | rain mn in | humidity % | barometer mb |
| 20260506130049 | 45 | 58 | 0.0 | 1.0 | 0.00 | 0.00 | 0.00 | 98 | 1011.2 |
| 20260506124548 | 45 | 17 | 0.0 | 1.0 | 0.00 | 0.00 | 0.00 | 98 | 1010.7 |
| 20260506123049 | 44 | 17 | 0.0 | 0.0 | 0.00 | 0.00 | 0.00 | 98 | 1010.8 |
| 20260506121554 | 44 | 17 | 0.0 | 0.0 | 0.00 | 0.00 | 0.00 | 98 | 1010.9 |
| 20260506120043 | 43 | 16 | 0.0 | 1.0 | 0.00 | 0.00 | 0.00 | 98 | 1010.2 |
| 20260506114541 | 43 | 16 | 0.0 | 1.0 | 0.00 | 0.00 | 0.00 | 98 | 1010.0 |
| 20260506113040 | 43 | 74 | 0.0 | 2.0 | 0.00 | 0.00 | 0.00 | 98 | 1009.4 |
| 20260506111539 | 43 | 94 | 0.0 | 1.0 | 0.00 | 0.00 | 0.00 | 98 | 1009.2 |
| 20260506110040 | 43 | 74 | 0.0 | 1.0 | 0.00 | 0.00 | 0.00 | 98 | 1009.6 |
| 20260506104535 | 44 | 72 | 0.0 | 0.0 | 0.00 | 0.00 | 0.00 | 98 | 1009.3 |
| 20260506103033 | 44 | 91 | 0.0 | 1.0 | 0.00 | 0.00 | 0.00 | 98 | 1008.4 |
| 20260506101533 | 44 | 23 | 0.0 | 1.0 | 0.00 | 0.00 | 0.00 | 98 | 1008.5 |
| 20260506100034 | 44 | 104 | 0.0 | 0.0 | 0.00 | 0.00 | 0.00 | 98 | 1008.7 |
| 20260506094529 | 44 | 104 | 0.0 | 0.0 | 0.00 | 0.00 | 0.00 | 98 | 1008.0 |
| 20260506093027 | 44 | 66 | 0.0 | 2.0 | 0.00 | 0.00 | 0.00 | 98 | 1007.6 |
| 20260506091526 | 44 | 115 | 0.0 | 2.0 | 0.00 | 0.00 | 0.00 | 98 | 1007.6 |
| 20260506090025 | 44 | 79 | 0.0 | 1.0 | 0.00 | 0.00 | 0.00 | 98 | 1007.7 |
| 20260506084534 | 43 | 345 | 0.0 | 1.0 | 0.00 | 0.00 | 0.00 | 98 | 1007.6 |
| 20260506083030 | 44 | 65 | 0.0 | 3.0 | 0.00 | 0.00 | 0.00 | 98 | 1007.6 |
| 20260506081523 | 44 | 88 | 0.0 | 3.0 | 0.00 | 0.00 | 0.00 | 98 | 1007.5 |
| 20260506073018 | 45 | 343 | 0.0 | 2.0 | 0.00 | 0.00 | 0.00 | 98 | 1007.3 |
| 20260506071519 | 45 | 71 | 0.0 | 3.0 | 0.00 | 0.00 | 0.00 | 98 | 1007.5 |
| 20260506061509 | 46 | 347 | 0.0 | 4.0 | 0.00 | 0.00 | 0.00 | 98 | 1006.7 |
| 20260506050116 | 49 | 36 | 0.0 | 2.0 | 0.00 | 0.00 | 0.00 | 98 | 1006.7 |
| 20260506044557 | 49 | 35 | 0.0 | 3.0 | 0.00 | 0.00 | 0.00 | 98 | 1006.5 |
| 20260506043055 | 50 | 85 | 0.0 | 2.0 | 0.00 | 0.00 | 0.00 | 98 | 1006.8 |
| 20260506041600 | 50 | 359 | 0.0 | 1.0 | 0.00 | 0.00 | 0.00 | 98 | 1006.8 |
| 20260506040049 | 50 | 72 | 0.0 | 1.0 | 0.00 | 0.00 | 0.00 | 98 | 1006.5 |
| 20260506034553 | 50 | 72 | 0.0 | 2.0 | 0.00 | 0.00 | 0.00 | 98 | 1006.3 |
| 20260506033048 | 50 | 79 | 0.0 | 1.0 | 0.00 | 0.00 | 0.00 | 98 | 1006.2 |
| 20260506031547 | 51 | 89 | 0.0 | 2.0 | 0.00 | 0.00 | 0.00 | 97 | 1006.3 |
| 20260506030046 | 51 | 76 | 0.0 | 1.0 | 0.00 | 0.00 | 0.00 | 97 | 1006.6 |
| 20260506024544 | 52 | 86 | 0.0 | 4.0 | 0.00 | 0.00 | 0.00 | 96 | 1007.0 |
| 20260506023042 | 53 | 66 | 0.0 | 1.0 | 0.00 | 0.00 | 0.00 | 96 | 1007.2 |
| 20260506021535 | 55 | 274 | 0.0 | 1.0 | 0.00 | 0.00 | 0.00 | 96 | 1007.1 |
| 20260506020035 | 58 | 271 | 0.0 | 0.0 | 0.00 | 0.00 | 0.00 | 98 | 1006.9 |
| 20260506014534 | 58 | 271 | 0.0 | 0.0 | 0.00 | 0.00 | 0.00 | 98 | 1006.5 |
| 20260506013048 | 59 | 264 | 0.0 | 2.0 | 0.00 | 0.00 | 0.00 | 98 | 1006.5 |
| 20260506011540 | 59 | 257 | 0.0 | 0.0 | 0.00 | 0.00 | 0.00 | 98 | 1006.5 |
| 20260506010035 | 59 | 257 | 0.0 | 0.0 | 0.00 | 0.00 | 0.00 | 98 | 1006.6 |
| 20260506004531 | 59 | 257 | 0.0 | 0.0 | 0.00 | 0.00 | 0.00 | 98 | 1006.3 |
| 20260506003031 | 59 | 257 | 0.0 | 0.0 | 0.00 | 0.00 | 0.00 | 98 | 1006.1 |
| 20260506001533 | 59 | 257 | 0.0 | 0.0 | 0.00 | 0.00 | 0.00 | 98 | 1006.1 |
| 20260506000030 | 59 | 257 | 0.0 | 1.0 | 0.00 | 0.00 | 0.00 | 97 | 1006.1 |
| 20260505234530 | 59 | 257 | 0.0 | 0.0 | 0.00 | 0.00 | 0.00 | 97 | 1006.2 |
| 20260505233030 | 59 | 257 | 0.0 | 1.0 | 0.00 | 0.00 | 0.00 | 97 | 1006.1 |
| 20260505231529 | 59 | 232 | 0.0 | 4.0 | 0.00 | 0.00 | 0.00 | 97 | 1006.2 |
| 20260505230027 | 60 | 222 | 0.0 | 2.0 | 0.00 | 0.00 | 0.00 | 97 | 1006.5 |
| 20260505224526 | 60 | 256 | 0.0 | 2.0 | 0.00 | 0.00 | 0.00 | 97 | 1006.6 |
| 20260505223036 | 60 | 265 | 0.0 | 2.0 | 0.00 | 0.00 | 0.00 | 97 | 1006.8 |
| 20260505221526 | 60 | 257 | 0.0 | 1.0 | 0.00 | 0.00 | 0.00 | 97 | 1006.9 |
| 20260505220042 | 60 | 255 | 0.0 | 1.0 | 0.00 | 0.00 | 0.00 | 97 | 1006.9 |
| 20260505214533 | 60 | 237 | 0.0 | 1.0 | 0.00 | 0.00 | 0.00 | 96 | 1007.0 |
| 20260505213024 | 60 | 245 | 0.0 | 1.0 | 0.00 | 0.00 | 0.00 | 96 | 1007.0 |
| 20260505211523 | 60 | 248 | 0.0 | 2.0 | 0.00 | 0.00 | 0.00 | 96 | 1006.9 |
| 20260505210023 | 60 | 271 | 0.0 | 0.0 | 0.00 | 0.00 | 0.00 | 96 | 1006.9 |
| 20260505204522 | 60 | 271 | 0.0 | 0.0 | 0.00 | 0.00 | 0.00 | 95 | 1007.0 |
| 20260505203021 | 60 | 271 | 0.0 | 0.0 | 0.00 | 0.00 | 0.00 | 95 | 1006.9 |
| 20260505201520 | 60 | 274 | 0.0 | 1.0 | 0.00 | 0.00 | 0.00 | 93 | 1007.0 |
| 20260505200032 | 61 | 263 | 0.0 | 2.0 | 0.00 | 0.00 | 0.00 | 90 | 1007.5 |
| 20260505194520 | 64 | 256 | 0.0 | 3.0 | 0.00 | 0.00 | 0.00 | 81 | 1007.4 |
| 20260505193019 | 66 | 243 | 0.0 | 1.0 | 0.00 | 0.00 | 0.00 | 73 | 1006.8 |
| 20260505191526 | 66 | 338 | 0.0 | 0.0 | 0.00 | 0.00 | 0.00 | 74 | 1007.0 |
| 20260505190018 | 66 | 252 | 0.0 | 1.0 | 0.00 | 0.00 | 0.00 | 72 | 1007.2 |
| 20260505184518 | 67 | 258 | 0.0 | 2.0 | 0.00 | 0.00 | 0.00 | 71 | 1007.4 |
| 20260505183020 | 67 | 241 | 0.0 | 2.0 | 0.00 | 0.00 | 0.00 | 70 | 1007.6 |
| 20260505181521 | 67 | 293 | 0.0 | 5.0 | 0.00 | 0.00 | 0.00 | 70 | 1007.7 |
| 20260505180016 | 66 | 273 | 0.0 | 2.0 | 0.00 | 0.00 | 0.00 | 71 | 1007.7 |
| 20260505174516 | 66 | 266 | 0.0 | 3.0 | 0.00 | 0.00 | 0.00 | 72 | 1007.9 |
| 20260505173015 | 66 | 252 | 0.0 | 6.0 | 0.00 | 0.00 | 0.00 | 73 | 1008.0 |
| 20260505171514 | 65 | 243 | 0.0 | 3.0 | 0.00 | 0.00 | 0.00 | 73 | 1008.1 |
| 20260505170014 | 66 | 269 | 0.0 | 3.0 | 0.00 | 0.00 | 0.00 | 73 | 1008.0 |
| 20260505164514 | 66 | 250 | 0.0 | 4.0 | 0.00 | 0.00 | 0.00 | 71 | 1008.0 |
| 20260505163013 | 67 | 302 | 0.0 | 3.0 | 0.00 | 0.00 | 0.00 | 70 | 1008.0 |
| 20260505161533 | 67 | 245 | 0.0 | 5.0 | 0.00 | 0.00 | 0.00 | 70 | 1008.0 |
| 20260505153012 | 66 | 274 | 0.0 | 2.0 | 0.00 | 0.00 | 0.00 | 76 | 1008.0 |
| 20260505151506 | 66 | 261 | 0.0 | 4.0 | 0.00 | 0.00 | 0.00 | 76 | 1008.0 |
| 20260505130115 | 57 | 238 | 0.0 | 1.0 | 0.00 | 0.00 | 0.00 | 96 | 1007.1 |